TimeCDT,TemperatureF,Dew PointF,Humidity,Sea Level PressureIn,VisibilityMPH,Wind Direction,Wind SpeedMPH,Gust SpeedMPH,PrecipitationIn,Events,Conditions,WindDirDegrees,DateUTC
12:51 AM,57.9,35.1,42,30.08,10.0,North,11.5,-,N/A,,Partly Cloudy,10,2013-03-11 05:51:00
1:51 AM,57.9,35.1,42,30.07,10.0,North,18.4,-,N/A,,Partly Cloudy,10,2013-03-11 06:51:00
2:51 AM,57.0,36.0,45,30.08,10.0,NNE,12.7,-,N/A,,Mostly Cloudy,20,2013-03-11 07:51:00
3:51 AM,55.9,35.1,45,30.08,10.0,NNE,11.5,-,N/A,,Mostly Cloudy,20,2013-03-11 08:51:00
4:51 AM,53.6,33.8,47,30.07,10.0,North,10.4,-,N/A,,Partly Cloudy,10,2013-03-11 09:51:00
5:51 AM,52.0,35.1,53,30.09,10.0,NNE,8.1,-,N/A,,Partly Cloudy,30,2013-03-11 10:51:00
6:51 AM,53.1,36.0,52,30.11,10.0,NE,3.5,-,N/A,,Partly Cloudy,50,2013-03-11 11:51:00
7:51 AM,50.0,34.0,54,30.13,10.0,NNE,5.8,-,N/A,,Partly Cloudy,20,2013-03-11 12:51:00
8:51 AM,55.9,35.1,45,30.16,10.0,NNE,6.9,-,N/A,,Clear,30,2013-03-11 13:51:00
9:51 AM,59.0,32.0,36,30.17,10.0,NNE,10.4,-,N/A,,Clear,20,2013-03-11 14:51:00
10:51 AM,62.1,32.0,32,30.17,10.0,North,9.2,-,N/A,,Clear,10,2013-03-11 15:51:00
11:51 AM,69.1,26.1,20,30.16,10.0,North,8.1,17.3,N/A,,Clear,350,2013-03-11 16:51:00
12:51 PM,72.0,21.0,15,30.14,10.0,North,20.7,26.5,N/A,,Clear,350,2013-03-11 17:51:00
1:51 PM,73.9,18.0,12,30.11,10.0,NW,18.4,27.6,N/A,,Clear,320,2013-03-11 18:51:00
2:51 PM,75.0,18.0,12,30.07,10.0,NW,17.3,36.8,N/A,,Clear,320,2013-03-11 19:51:00
3:51 PM,75.9,18.0,11,30.05,10.0,NNW,23.0,28.8,N/A,,Clear,330,2013-03-11 20:51:00
4:12 PM,75.2,17.6,11,30.03,10.0,NNW,15.0,25.3,N/A,,Partly Cloudy,340,2013-03-11 21:12:00
4:51 PM,75.9,18.0,11,30.02,10.0,NW,18.4,24.2,N/A,,Clear,320,2013-03-11 21:51:00
5:51 PM,75.0,18.0,12,30.01,10.0,NW,11.5,19.6,N/A,,Clear,320,2013-03-11 22:51:00
6:51 PM,73.0,18.0,12,30.02,10.0,NNW,15.0,-,N/A,,Clear,330,2013-03-11 23:51:00
7:51 PM,66.9,19.9,17,30.03,10.0,North,5.8,-,N/A,,Clear,350,2013-03-12 00:51:00
8:51 PM,63.0,28.0,27,30.06,10.0,NNE,5.8,-,N/A,,Clear,20,2013-03-12 01:51:00
9:51 PM,61.0,25.0,25,30.08,10.0,NE,4.6,-,N/A,,Clear,50,2013-03-12 02:51:00
10:51 PM,55.0,21.0,27,30.09,10.0,East,3.5,-,N/A,,Clear,90,2013-03-12 03:51:00
11:51 PM,60.8,35.6,39,30.10,10.0,East,6.9,-,N/A,,Partly Cloudy,90,2013-03-12 04:51:00